PUA2422 SUMU-SCEL

Flight info

Callsign PUA2422
Flight time N/A
Altitude 36000
Route DCT DAGUS UL405 TOSOR UT687 UMKAL UMKA7C
Aircraft B738/M-SDE2E3FGHIRWXY/LB1

Departure

Time 2026-04-25 16:14
Airport Carrasco General Cesáreo L. Berisso International Airport (SUMU)

Arrival

Time N/A
Airport Comodoro Arturo Merino Benítez International Airport (SCEL)
Time Latitude Longitude Altitude Speed Heading
2026-04-25 15:48 -34.83617 -56.01804 81 ft 0 kts 144°
2026-04-25 16:05 -34.83614 -56.01807 81 ft 3 kts 144°
2026-04-25 16:05 -34.83566 -56.01838 87 ft 4 kts 167°
2026-04-25 16:06 -34.83542 -56.01839 85 ft 4 kts 210°
2026-04-25 16:06 -34.83535 -56.01832 85 ft 0 kts 233°
2026-04-25 16:09 -34.83535 -56.01833 85 ft 1 kts 233°
2026-04-25 16:09 -34.83551 -56.01858 85 ft 8 kts 233°
2026-04-25 16:09 -34.83595 -56.01931 83 ft 13 kts 234°
2026-04-25 16:10 -34.83655 -56.02029 83 ft 15 kts 233°
2026-04-25 16:10 -34.83714 -56.02127 81 ft 14 kts 233°
2026-04-25 16:10 -34.83775 -56.02217 81 ft 13 kts 219°
2026-04-25 16:10 -34.83863 -56.02243 83 ft 13 kts 183°
2026-04-25 16:11 -34.83941 -56.02277 85 ft 13 kts 245°
2026-04-25 16:11 -34.83946 -56.02381 81 ft 12 kts 270°
2026-04-25 16:11 -34.83946 -56.02486 81 ft 12 kts 270°
2026-04-25 16:11 -34.83946 -56.02599 81 ft 15 kts 270°
2026-04-25 16:12 -34.83972 -56.02717 84 ft 14 kts 239°
2026-04-25 16:12 -34.84011 -56.02825 83 ft 14 kts 266°
2026-04-25 16:12 -34.84010 -56.02939 85 ft 13 kts 271°
2026-04-25 16:12 -34.84012 -56.03012 84 ft 13 kts 261°
2026-04-25 16:13 -34.84101 -56.03066 81 ft 12 kts 158°
2026-04-25 16:13 -34.84173 -56.03035 82 ft 8 kts 210°
2026-04-25 16:13 -34.84169 -56.03079 85 ft 6 kts 325°
2026-04-25 16:13 -34.84123 -56.03078 83 ft 9 kts
2026-04-25 16:14 -34.84035 -56.03078 83 ft 26 kts 359°
2026-04-25 16:14 -34.83581 -56.03082 84 ft 104 kts 359°
2026-04-25 16:14 -34.82620 -56.03092 91 ft 169 kts 359°
2026-04-25 16:14 -34.81384 -56.03101 714 ft 180 kts 349°
2026-04-25 16:15 -34.80332 -56.03745 1711 ft 171 kts 307°
2026-04-25 16:15 -34.79907 -56.05112 2353 ft 184 kts 278°
2026-04-25 16:15 -34.80006 -56.06795 2613 ft 215 kts 250°
2026-04-25 16:15 -34.80903 -56.08332 2894 ft 235 kts 217°
2026-04-25 16:16 -34.82428 -56.09152 3229 ft 258 kts 190°
2026-04-25 16:16 -34.84250 -56.09417 3924 ft 265 kts 187°
2026-04-25 16:16 -34.86089 -56.09655 4879 ft 266 kts 187°
2026-04-25 16:16 -34.87947 -56.09910 5691 ft 271 kts 188°
2026-04-25 16:17 -34.89832 -56.10184 6502 ft 275 kts 188°
2026-04-25 16:17 -34.91743 -56.10473 7315 ft 277 kts 189°
2026-04-25 16:17 -34.93666 -56.10774 8130 ft 280 kts 189°
2026-04-25 16:17 -34.95608 -56.11083 8941 ft 283 kts 190°